| time (UTC) | temp C | wind direction | speed KPH | gust KPH | rain 1hr cm | rain 24hr cm | rain mn cm | humidity % | barometer mb |
| 20260510180515 | 26 | 175 | 1.6 | 9.7 | 0.00 | 0.15 | 0.00 | 49 | 1013.8 |
| 20260510175516 | 26 | 106 | 1.6 | 6.4 | 0.00 | 0.15 | 0.00 | 49 | 1014.0 |
| 20260510174516 | 26 | 148 | 1.6 | 6.4 | 0.00 | 0.15 | 0.00 | 50 | 1014.0 |
| 20260510173516 | 25 | 21 | 1.6 | 6.4 | 0.00 | 0.15 | 0.00 | 51 | 1013.9 |
| 20260510172516 | 25 | 256 | 0.0 | 4.8 | 0.00 | 0.15 | 0.00 | 54 | 1014.0 |
| 20260510171516 | 24 | 170 | 1.6 | 4.8 | 0.00 | 0.15 | 0.00 | 60 | 1014.0 |
| 20260510170517 | 24 | 135 | 1.6 | 4.8 | 0.00 | 0.15 | 0.00 | 61 | 1014.1 |
| 20260510165537 | 23 | 20 | 1.6 | 4.8 | 0.00 | 0.15 | 0.00 | 65 | 1014.3 |
| 20260510164517 | 24 | 211 | 3.2 | 8.0 | 0.00 | 0.15 | 0.00 | 63 | 1014.4 |
| 20260510163516 | 24 | 334 | 0.0 | 4.8 | 0.00 | 0.15 | 0.00 | 61 | 1014.5 |
| 20260510162516 | 23 | 356 | 0.0 | 3.2 | 0.00 | 0.15 | 0.00 | 62 | 1014.5 |
| 20260510161516 | 23 | 178 | 1.6 | 4.8 | 0.00 | 0.15 | 0.00 | 63 | 1014.5 |
| 20260510160536 | 23 | 194 | 0.0 | 8.0 | 0.00 | 0.15 | 0.00 | 64 | 1014.4 |
| 20260510155537 | 22 | 31 | 0.0 | 3.2 | 0.00 | 0.15 | 0.00 | 65 | 1014.5 |
| 20260510154516 | 22 | 202 | 1.6 | 8.0 | 0.00 | 0.15 | 0.00 | 69 | 1014.6 |
| 20260510153537 | 22 | 217 | 0.0 | 3.2 | 0.00 | 0.15 | 0.00 | 68 | 1014.5 |
| 20260510152517 | 22 | 218 | 0.0 | 6.4 | 0.00 | 0.15 | 0.00 | 69 | 1014.6 |
| 20260510151515 | 22 | 220 | 1.6 | 6.4 | 0.00 | 0.15 | 0.00 | 69 | 1014.5 |
| 20260510150515 | 22 | 267 | 0.0 | 4.8 | 0.00 | 0.15 | 0.00 | 71 | 1014.3 |
| 20260510145516 | 22 | 206 | 1.6 | 4.8 | 0.00 | 0.15 | 0.00 | 71 | 1014.1 |
| 20260510144516 | 23 | 187 | 0.0 | 4.8 | 0.00 | 0.15 | 0.00 | 67 | 1013.9 |
| 20260510143516 | 22 | 344 | 0.0 | 4.8 | 0.00 | 0.15 | 0.00 | 65 | 1013.7 |
| 20260510142516 | 22 | 321 | 1.6 | 3.2 | 0.00 | 0.15 | 0.00 | 69 | 1013.8 |
| 20260510141517 | 22 | 285 | 0.0 | 3.2 | 0.00 | 0.15 | 0.00 | 72 | 1013.9 |
| 20260510140536 | 21 | 354 | 0.0 | 3.2 | 0.00 | 0.15 | 0.00 | 74 | 1013.9 |
| 20260510135537 | 21 | 252 | 0.0 | 4.8 | 0.00 | 0.15 | 0.00 | 75 | 1013.8 |
| 20260510134517 | 20 | 225 | 0.0 | 1.6 | 0.00 | 0.15 | 0.00 | 76 | 1013.6 |
| 20260510133517 | 20 | 195 | 0.0 | 3.2 | 0.00 | 0.15 | 0.00 | 75 | 1013.6 |
| 20260510132517 | 19 | 244 | 0.0 | 1.6 | 0.00 | 0.15 | 0.00 | 77 | 1013.7 |
| 20260510131518 | 18 | 329 | 0.0 | 3.2 | 0.00 | 0.15 | 0.00 | 81 | 1013.8 |
| 20260510130518 | 17 | 315 | 3.2 | 4.8 | 0.00 | 0.15 | 0.00 | 83 | 1013.8 |
| 20260510125518 | 17 | 303 | 3.2 | 6.4 | 0.00 | 0.15 | 0.00 | 85 | 1013.9 |
| 20260510124520 | 16 | 283 | 1.6 | 3.2 | 0.00 | 0.15 | 0.00 | 88 | 1013.9 |
| 20260510123520 | 16 | 287 | 3.2 | 3.2 | 0.00 | 0.15 | 0.00 | 90 | 1013.8 |
| 20260510122540 | 15 | 297 | 3.2 | 6.4 | 0.00 | 0.15 | 0.00 | 92 | 1013.8 |
| 20260510121520 | 15 | 307 | 4.8 | 6.4 | 0.00 | 0.15 | 0.00 | 94 | 1013.7 |
| 20260510120520 | 14 | 304 | 3.2 | 4.8 | 0.00 | 0.15 | 0.00 | 96 | 1013.7 |
| 20260510115541 | 13 | 300 | 3.2 | 6.4 | 0.00 | 0.15 | 0.00 | 98 | 1013.6 |
| 20260510114520 | 13 | 303 | 3.2 | 4.8 | 0.00 | 0.15 | 0.00 | 99 | 1013.6 |
| 20260510113521 | 13 | 281 | 3.2 | 4.8 | 0.00 | 0.15 | 0.00 | 100 | 1013.4 |
| 20260510112521 | 12 | 268 | 1.6 | 3.2 | 0.00 | 0.15 | 0.00 | 100 | 1013.2 |
| 20260510111521 | 12 | 288 | 3.2 | 4.8 | 0.00 | 0.15 | 0.00 | 100 | 1013.0 |
| 20260510110521 | 11 | 300 | 1.6 | 3.2 | 0.00 | 0.15 | 0.00 | 100 | 1012.7 |
| 20260510105521 | 11 | 291 | 1.6 | 1.6 | 0.00 | 0.15 | 0.00 | 100 | 1012.5 |
| 20260510104521 | 11 | 301 | 1.6 | 3.2 | 0.00 | 0.15 | 0.00 | 100 | 1012.4 |
| 20260510103522 | 11 | 317 | 0.0 | 1.6 | 0.00 | 0.15 | 0.00 | 99 | 1012.4 |
| 20260510102522 | 11 | 0.0 | 0.0 | 0.00 | 0.15 | 0.00 | 100 | 1012.1 | |
| 20260510101542 | 11 | 0.0 | 0.0 | 0.00 | 0.15 | 0.00 | 99 | 1012.2 | |
| 20260510100543 | 12 | 0.0 | 0.0 | 0.00 | 0.15 | 0.00 | 99 | 1012.3 | |
| 20260510095523 | 12 | 279 | 1.6 | 3.2 | 0.00 | 0.15 | 0.00 | 99 | 1012.2 |
| 20260510094523 | 12 | 300 | 3.2 | 6.4 | 0.00 | 0.15 | 0.00 | 100 | 1012.2 |
| 20260510093523 | 11 | 303 | 1.6 | 3.2 | 0.00 | 0.15 | 0.00 | 100 | 1012.1 |
| 20260510092523 | 11 | 289 | 1.6 | 3.2 | 0.00 | 0.15 | 0.00 | 99 | 1012.0 |
| 20260510091523 | 11 | 0.0 | 0.0 | 0.00 | 0.15 | 0.00 | 99 | 1011.9 | |
| 20260510090523 | 11 | 268 | 0.0 | 1.6 | 0.00 | 0.15 | 0.00 | 99 | 1011.8 |
| 20260510085524 | 11 | 280 | 0.0 | 1.6 | 0.00 | 0.15 | 0.00 | 99 | 1011.6 |
| 20260510084524 | 12 | 296 | 1.6 | 3.2 | 0.00 | 0.15 | 0.00 | 99 | 1011.6 |
| 20260510083524 | 12 | 298 | 3.2 | 3.2 | 0.00 | 0.15 | 0.00 | 99 | 1011.4 |
| 20260510082524 | 12 | 305 | 3.2 | 4.8 | 0.00 | 0.15 | 0.00 | 99 | 1011.3 |
| 20260510081524 | 12 | 258 | 0.0 | 1.6 | 0.00 | 0.15 | 0.00 | 99 | 1011.2 |
| 20260510080524 | 12 | 299 | 1.6 | 3.2 | 0.00 | 0.15 | 0.00 | 99 | 1011.0 |
| 20260510075525 | 12 | 307 | 0.0 | 1.6 | 0.00 | 0.15 | 0.00 | 99 | 1010.9 |
| 20260510074525 | 12 | 300 | 1.6 | 3.2 | 0.00 | 0.15 | 0.00 | 99 | 1010.9 |
| 20260510073525 | 12 | 307 | 0.0 | 1.6 | 0.00 | 0.15 | 0.00 | 99 | 1010.8 |
| 20260510072525 | 12 | 304 | 0.0 | 1.6 | 0.00 | 0.15 | 0.00 | 99 | 1010.7 |
| 20260510071525 | 12 | 302 | 3.2 | 3.2 | 0.00 | 0.15 | 0.00 | 99 | 1010.7 |
| 20260510070545 | 12 | 307 | 0.0 | 1.6 | 0.00 | 0.15 | 0.00 | 99 | 1010.7 |
| 20260510065546 | 12 | 303 | 0.0 | 0.0 | 0.00 | 0.15 | 0.00 | 99 | 1010.7 |
| 20260510064546 | 12 | 309 | 0.0 | 1.6 | 0.00 | 0.15 | 0.00 | 99 | 1010.6 |
| 20260510063526 | 12 | 297 | 0.0 | 1.6 | 0.00 | 0.15 | 0.00 | 98 | 1010.6 |
| 20260510062526 | 12 | 304 | 1.6 | 1.6 | 0.00 | 0.15 | 0.00 | 98 | 1010.6 |
| 20260510061546 | 12 | 301 | 0.0 | 1.6 | 0.00 | 0.15 | 0.00 | 98 | 1010.5 |
| 20260510060527 | 12 | 300 | 1.6 | 3.2 | 0.00 | 0.15 | 0.00 | 98 | 1010.4 |
| 20260510055527 | 12 | 299 | 0.0 | 1.6 | 0.00 | 0.15 | 0.00 | 98 | 1010.5 |
| 20260510054547 | 13 | 289 | 0.0 | 0.0 | 0.00 | 0.15 | 0.00 | 98 | 1010.7 |
| 20260510053527 | 13 | 294 | 0.0 | 1.6 | 0.00 | 0.15 | 0.00 | 98 | 1010.7 |
| 20260510052607 | 13 | 300 | 1.6 | 1.6 | 0.00 | 0.15 | 0.00 | 98 | 1010.8 |
| 20260510051547 | 13 | 286 | 1.6 | 3.2 | 0.00 | 0.15 | 0.00 | 98 | 1010.8 |
| 20260510050527 | 13 | 298 | 1.6 | 3.2 | 0.00 | 0.15 | 0.00 | 97 | 1010.8 |
| 20260510045527 | 13 | 303 | 1.6 | 1.6 | 0.00 | 0.15 | 0.00 | 97 | 1010.9 |
| 20260510044528 | 13 | 257 | 0.0 | 0.0 | 0.00 | 0.15 | 0.00 | 97 | 1010.9 |
| 20260510043528 | 13 | 298 | 1.6 | 1.6 | 0.00 | 0.15 | 0.00 | 97 | 1010.9 |
| 20260510042548 | 13 | 296 | 0.0 | 1.6 | 0.00 | 0.15 | 0.00 | 96 | 1010.8 |
| 20260510041529 | 13 | 289 | 0.0 | 1.6 | 0.00 | 0.15 | 0.00 | 96 | 1010.8 |
| 20260510040518 | 13 | 297 | 0.0 | 1.6 | 0.00 | 0.15 | 0.00 | 96 | 1010.7 |
| 20260510035556 | 13 | 299 | 1.6 | 3.2 | 0.00 | 0.15 | 0.15 | 96 | 1010.7 |
| 20260510034516 | 13 | 297 | 1.6 | 3.2 | 0.00 | 0.15 | 0.15 | 96 | 1010.7 |
| 20260510033516 | 13 | 301 | 1.6 | 1.6 | 0.00 | 0.15 | 0.15 | 95 | 1010.6 |
| 20260510032516 | 14 | 263 | 0.0 | 1.6 | 0.00 | 0.15 | 0.15 | 95 | 1010.6 |
| 20260510031516 | 14 | 290 | 1.6 | 1.6 | 0.00 | 0.15 | 0.15 | 95 | 1010.5 |
| 20260510030516 | 14 | 290 | 0.0 | 3.2 | 0.00 | 0.15 | 0.15 | 95 | 1010.5 |
| 20260510025516 | 14 | 291 | 0.0 | 1.6 | 0.00 | 0.15 | 0.15 | 94 | 1010.5 |
| 20260510024517 | 14 | 298 | 0.0 | 1.6 | 0.00 | 0.15 | 0.15 | 94 | 1010.5 |
| 20260510023537 | 14 | 306 | 0.0 | 1.6 | 0.00 | 0.15 | 0.15 | 94 | 1010.5 |
| 20260510022517 | 14 | 304 | 1.6 | 3.2 | 0.00 | 0.15 | 0.15 | 94 | 1010.5 |
| 20260510021517 | 14 | 301 | 1.6 | 3.2 | 0.00 | 0.15 | 0.15 | 94 | 1010.5 |
| 20260510020518 | 14 | 301 | 1.6 | 3.2 | 0.00 | 0.15 | 0.15 | 93 | 1010.4 |
| 20260510015518 | 14 | 297 | 1.6 | 3.2 | 0.00 | 0.15 | 0.15 | 93 | 1010.3 |
| 20260510014518 | 15 | 300 | 1.6 | 3.2 | 0.00 | 0.15 | 0.15 | 93 | 1010.2 |
| 20260510013518 | 15 | 298 | 1.6 | 3.2 | 0.00 | 0.15 | 0.15 | 92 | 1010.1 |
| 20260510012518 | 15 | 282 | 0.0 | 1.6 | 0.00 | 0.15 | 0.15 | 91 | 1010.1 |
| 20260510011539 | 15 | 285 | 0.0 | 1.6 | 0.00 | 0.15 | 0.15 | 90 | 1010.0 |
| 20260510010516 | 15 | 305 | 1.6 | 3.2 | 0.00 | 0.15 | 0.15 | 90 | 1010.0 |
| 20260510005535 | 16 | 281 | 0.0 | 1.6 | 0.00 | 0.15 | 0.15 | 88 | 1009.9 |
| 20260510004535 | 16 | 292 | 1.6 | 3.2 | 0.00 | 0.15 | 0.15 | 86 | 1009.9 |
| 20260510003516 | 16 | 277 | 0.0 | 1.6 | 0.00 | 0.15 | 0.15 | 85 | 1009.7 |
| 20260510002516 | 16 | 285 | 0.0 | 1.6 | 0.00 | 0.15 | 0.15 | 84 | 1009.7 |
| 20260510001517 | 17 | 279 | 0.0 | 1.6 | 0.00 | 0.15 | 0.15 | 82 | 1009.7 |
| 20260510000516 | 17 | 287 | 0.0 | 1.6 | 0.00 | 0.15 | 0.15 | 80 | 1009.6 |
| 20260509235537 | 18 | 311 | 0.0 | 1.6 | 0.00 | 0.15 | 0.15 | 76 | 1009.5 |
| 20260509234517 | 18 | 256 | 1.6 | 3.2 | 0.00 | 0.15 | 0.15 | 74 | 1009.5 |
| 20260509233517 | 20 | 272 | 0.0 | 3.2 | 0.00 | 0.15 | 0.15 | 71 | 1009.4 |
| 20260509232517 | 21 | 249 | 0.0 | 1.6 | 0.00 | 0.15 | 0.15 | 69 | 1009.3 |
| 20260509231517 | 21 | 266 | 0.0 | 0.0 | 0.00 | 0.15 | 0.15 | 67 | 1009.3 |
| 20260509230517 | 21 | 290 | 0.0 | 1.6 | 0.00 | 0.15 | 0.15 | 65 | 1009.3 |
| 20260509225518 | 21 | 239 | 0.0 | 3.2 | 0.00 | 0.15 | 0.15 | 64 | 1009.2 |
| 20260509224517 | 22 | 212 | 0.0 | 1.6 | 0.00 | 0.15 | 0.15 | 60 | 1009.3 |
| 20260509223518 | 23 | 220 | 0.0 | 1.6 | 0.00 | 0.15 | 0.15 | 58 | 1009.4 |
| 20260509222518 | 23 | 0.0 | 0.0 | 0.00 | 0.15 | 0.15 | 59 | 1009.4 | |
| 20260509221538 | 22 | 305 | 0.0 | 1.6 | 0.00 | 0.15 | 0.15 | 60 | 1009.3 |
| 20260509220515 | 22 | 204 | 0.0 | 3.2 | 0.00 | 0.15 | 0.15 | 61 | 1009.2 |
| 20260509215515 | 23 | 209 | 0.0 | 3.2 | 0.00 | 0.15 | 0.15 | 60 | 1009.3 |
| 20260509214516 | 23 | 206 | 0.0 | 3.2 | 0.00 | 0.15 | 0.15 | 59 | 1009.3 |
| 20260509213516 | 22 | 267 | 0.0 | 1.6 | 0.00 | 0.15 | 0.15 | 62 | 1009.3 |
| 20260509212516 | 21 | 213 | 0.0 | 1.6 | 0.00 | 0.15 | 0.15 | 66 | 1009.2 |
| 20260509211556 | 21 | 205 | 1.6 | 4.8 | 0.00 | 0.15 | 0.15 | 67 | 1009.0 |
| 20260509210517 | 21 | 302 | 0.0 | 1.6 | 0.00 | 0.15 | 0.15 | 68 | 1009.1 |
| 20260509205537 | 21 | 207 | 1.6 | 3.2 | 0.00 | 0.15 | 0.15 | 66 | 1009.0 |
| 20260509204517 | 21 | 229 | 1.6 | 6.4 | 0.00 | 0.15 | 0.15 | 68 | 1009.1 |
| 20260509203522 | 21 | 208 | 0.0 | 4.8 | 0.00 | 0.15 | 0.15 | 68 | 1009.2 |
| 20260509202517 | 21 | 341 | 0.0 | 3.2 | 0.00 | 0.15 | 0.15 | 72 | 1009.3 |
| 20260509201517 | 21 | 231 | 0.0 | 3.2 | 0.00 | 0.15 | 0.15 | 71 | 1009.5 |
| 20260509200537 | 21 | 177 | 0.0 | 4.8 | 0.03 | 0.15 | 0.15 | 71 | 1009.5 |
| 20260509195517 | 21 | 189 | 1.6 | 6.4 | 0.03 | 0.15 | 0.15 | 71 | 1009.6 |
| 20260509194517 | 20 | 331 | 0.0 | 3.2 | 0.15 | 0.15 | 0.15 | 74 | 1009.7 |
| 20260509193518 | 20 | 255 | 0.0 | 3.2 | 0.15 | 0.15 | 0.15 | 78 | 1009.7 |
| 20260509192518 | 18 | 222 | 1.6 | 4.8 | 0.15 | 0.15 | 0.15 | 82 | 1009.6 |
| 20260509191516 | 17 | 236 | 1.6 | 6.4 | 0.15 | 0.15 | 0.15 | 85 | 1010.0 |
| 20260509190515 | 17 | 278 | 1.6 | 3.2 | 0.13 | 0.13 | 0.13 | 85 | 1010.6 |
| 20260509185516 | 18 | 294 | 1.6 | 3.2 | 0.13 | 0.13 | 0.13 | 82 | 1010.7 |
| 20260509184516 | 18 | 203 | 3.2 | 8.0 | 0.00 | 0.00 | 0.00 | 76 | 1010.5 |
| 20260509183516 | 19 | 289 | 1.6 | 3.2 | 0.00 | 0.00 | 0.00 | 73 | 1010.4 |
| 20260509182516 | 20 | 186 | 1.6 | 8.0 | 0.00 | 0.00 | 0.00 | 70 | 1010.6 |
| 20260509181516 | 19 | 331 | 1.6 | 8.0 | 0.00 | 0.00 | 0.00 | 65 | 1010.7 |